TimeAEST,TemperatureF,Dew PointF,Humidity,Sea Level PressureIn,VisibilityMPH,Wind Direction,Wind SpeedMPH,Gust SpeedMPH,PrecipitationIn,Events,Conditions,WindDirDegrees,DateUTC
12:00 AM,48.2,46.4,93,30.48,6.2,Calm,Calm,-,N/A,,Unknown,0,2013-09-02 14:00:00
12:30 AM,48.2,46.4,93,30.48,6.2,Calm,Calm,-,N/A,,Unknown,0,2013-09-02 14:30:00
1:05 AM,44.6,44.6,100,30.48,3.7,Calm,Calm,-,N/A,,Unknown,0,2013-09-02 15:05:00
1:30 AM,46.4,46.4,100,30.48,1.6,Calm,Calm,-,N/A,,Unknown,0,2013-09-02 15:30:00
1:55 AM,44.6,44.6,100,30.48,0.7,Calm,Calm,-,N/A,,Unknown,0,2013-09-02 15:55:00
2:00 AM,46.4,44.6,93,30.48,0.3,Calm,Calm,-,N/A,,Unknown,0,2013-09-02 16:00:00
2:07 AM,46.4,46.4,100,30.45,0.5,Calm,Calm,-,N/A,,Unknown,0,2013-09-02 16:07:00
2:11 AM,44.6,44.6,100,30.45,0.9,Calm,Calm,-,N/A,,Unknown,0,2013-09-02 16:11:00
2:30 AM,46.4,46.4,100,30.45,0.2,Calm,Calm,-,N/A,,Unknown,0,2013-09-02 16:30:00
3:00 AM,44.6,44.6,100,30.45,0.1,Calm,Calm,-,N/A,,Scattered Clouds,0,2013-09-02 17:00:00
3:08 AM,44.6,44.6,100,30.45,0.6,Calm,Calm,-,N/A,,Scattered Clouds,0,2013-09-02 17:08:00
3:20 AM,44.6,42.8,93,30.45,6.2,Calm,Calm,-,N/A,,Scattered Clouds,0,2013-09-02 17:20:00
3:21 AM,42.8,42.8,100,30.45,6.2,Calm,Calm,-,N/A,,Mostly Cloudy,0,2013-09-02 17:21:00
3:29 AM,42.8,42.8,100,30.45,5.0,Calm,Calm,-,N/A,,Scattered Clouds,0,2013-09-02 17:29:00
3:30 AM,42.8,42.8,100,30.45,-9999.0,Calm,Calm,-,N/A,,Scattered Clouds,0,2013-09-02 17:30:00
3:31 AM,42.8,42.8,100,30.45,-9999.0,Calm,Calm,-,N/A,,Scattered Clouds,0,2013-09-02 17:31:00
3:50 AM,42.8,42.8,100,30.45,0.5,Calm,Calm,-,N/A,,Scattered Clouds,0,2013-09-02 17:50:00
3:56 AM,44.6,42.8,93,30.45,0.2,Calm,Calm,-,N/A,,Mostly Cloudy,0,2013-09-02 17:56:00
4:00 AM,44.6,42.8,93,30.45,-9999.0,Calm,Calm,-,N/A,,Mostly Cloudy,0,2013-09-02 18:00:00
4:05 AM,42.8,42.8,100,30.45,-9999.0,Calm,Calm,-,N/A,,Mostly Cloudy,0,2013-09-02 18:05:00
4:30 AM,42.8,42.8,100,30.45,0.2,Calm,Calm,-,N/A,,Overcast,0,2013-09-02 18:30:00
5:00 AM,42.8,42.8,100,30.48,0.1,Calm,Calm,-,N/A,,Overcast,0,2013-09-02 19:00:00
5:01 AM,42.8,42.8,100,30.48,0.1,Calm,Calm,-,N/A,,Overcast,0,2013-09-02 19:01:00
5:20 AM,42.8,42.8,100,30.48,-9999.0,Calm,Calm,-,N/A,,Mostly Cloudy,0,2013-09-02 19:20:00
5:30 AM,42.8,42.8,100,30.48,0.2,Calm,Calm,-,N/A,,Mostly Cloudy,0,2013-09-02 19:30:00
6:00 AM,42.8,42.8,100,30.48,6.2,Calm,Calm,-,N/A,,Scattered Clouds,0,2013-09-02 20:00:00
6:02 AM,42.8,42.8,100,30.48,6.2,Calm,Calm,-,N/A,,Scattered Clouds,0,2013-09-02 20:02:00
6:04 AM,42.8,42.8,100,30.48,6.2,Calm,Calm,-,N/A,,Scattered Clouds,0,2013-09-02 20:04:00
6:12 AM,42.8,42.8,100,30.48,6.2,Calm,Calm,-,N/A,,Unknown,0,2013-09-02 20:12:00
6:30 AM,42.8,42.8,100,30.51,6.2,Calm,Calm,-,N/A,,Unknown,0,2013-09-02 20:30:00
7:00 AM,44.6,44.6,100,30.51,3.7,Calm,Calm,-,N/A,,Unknown,0,2013-09-02 21:00:00
7:30 AM,48.2,48.2,100,30.51,1.8,Calm,Calm,-,N/A,,Unknown,0,2013-09-02 21:30:00
7:54 AM,50.0,50.0,100,30.54,1.2,Calm,Calm,-,N/A,,Mostly Cloudy,0,2013-09-02 21:54:00
8:00 AM,50.0,50.0,100,30.54,1.2,Calm,Calm,-,N/A,,Mostly Cloudy,0,2013-09-02 22:00:00
8:30 AM,53.6,51.8,94,30.54,1.6,Calm,Calm,-,N/A,,Mostly Cloudy,0,2013-09-02 22:30:00
9:00 AM,57.2,50.0,77,30.54,1.5,Calm,Calm,-,N/A,,Scattered Clouds,0,2013-09-02 23:00:00
9:01 AM,57.2,50.0,77,30.54,1.5,Calm,Calm,-,N/A,,Scattered Clouds,0,2013-09-02 23:01:00
9:30 AM,60.8,51.8,72,30.54,1.7,Calm,Calm,-,N/A,,Unknown,0,2013-09-02 23:30:00
10:00 AM,62.6,51.8,68,30.54,-9999.0,North,1.2,-,N/A,,Unknown,10,2013-09-03 00:00:00
10:30 AM,66.2,53.6,64,30.51,3.7,Calm,Calm,-,N/A,,Unknown,0,2013-09-03 00:30:00
10:49 AM,68.0,53.6,60,30.51,4.3,NNW,2.3,-,N/A,,Unknown,340,2013-09-03 00:49:00
11:00 AM,68.0,53.6,60,30.51,5.6,North,1.2,-,N/A,,Unknown,360,2013-09-03 01:00:00
11:30 AM,71.6,53.6,53,30.51,6.2,NNE,4.6,-,N/A,,Unknown,20,2013-09-03 01:30:00
12:00 PM,69.8,51.8,53,30.48,6.2,ENE,5.8,-,N/A,,Unknown,70,2013-09-03 02:00:00
12:30 PM,71.6,51.8,50,30.48,6.2,East,6.9,-,N/A,,Unknown,90,2013-09-03 02:30:00
1:00 PM,73.4,50.0,44,30.45,6.2,East,3.5,-,N/A,,Unknown,80,2013-09-03 03:00:00
1:30 PM,73.4,48.2,41,30.45,6.2,NE,5.8,-,N/A,,Unknown,40,2013-09-03 03:30:00
2:00 PM,75.2,48.2,38,30.45,6.2,ENE,6.9,-,N/A,,Unknown,70,2013-09-03 04:00:00
2:30 PM,75.2,50.0,41,30.42,6.2,East,6.9,-,N/A,,Unknown,80,2013-09-03 04:30:00
3:00 PM,75.2,51.8,44,30.42,6.2,NNE,2.3,-,N/A,,Unknown,30,2013-09-03 05:00:00
3:30 PM,75.2,50.0,41,30.42,6.2,ESE,2.3,-,N/A,,Unknown,110,2013-09-03 05:30:00
4:00 PM,75.2,50.0,41,30.42,6.2,North,2.3,-,N/A,,Unknown,10,2013-09-03 06:00:00
4:30 PM,73.4,50.0,44,30.42,6.2,NE,2.3,-,N/A,,Unknown,40,2013-09-03 06:30:00
5:00 PM,71.6,51.8,50,30.42,6.2,ENE,4.6,-,N/A,,Unknown,70,2013-09-03 07:00:00
5:30 PM,68.0,53.6,60,30.45,6.2,East,8.1,-,N/A,,Unknown,80,2013-09-03 07:30:00
6:00 PM,64.4,53.6,68,30.45,6.2,ENE,8.1,-,N/A,,Unknown,70,2013-09-03 08:00:00
6:30 PM,62.6,55.4,77,30.45,6.2,ENE,5.8,-,N/A,,Unknown,70,2013-09-03 08:30:00
7:00 PM,62.6,55.4,77,30.48,6.2,East,4.6,-,N/A,,Unknown,90,2013-09-03 09:00:00
7:30 PM,60.8,55.4,82,30.48,6.2,Calm,Calm,-,N/A,,Unknown,0,2013-09-03 09:30:00
8:00 PM,59.0,53.6,82,30.48,6.2,Calm,Calm,-,N/A,,Unknown,0,2013-09-03 10:00:00
8:30 PM,57.2,51.8,82,30.51,6.2,Calm,Calm,-,N/A,,Unknown,0,2013-09-03 10:30:00
9:00 PM,55.4,50.0,82,30.51,6.2,Calm,Calm,-,N/A,,Unknown,0,2013-09-03 11:00:00
9:30 PM,55.4,51.8,88,30.51,6.2,Calm,Calm,-,N/A,,Unknown,0,2013-09-03 11:30:00
10:00 PM,53.6,53.6,100,30.51,6.2,Calm,Calm,-,N/A,,Unknown,0,2013-09-03 12:00:00
10:30 PM,51.8,51.8,100,30.51,6.2,Calm,Calm,-,N/A,,Unknown,0,2013-09-03 12:30:00
11:00 PM,53.6,51.8,94,30.51,6.2,Calm,Calm,-,N/A,,Unknown,0,2013-09-03 13:00:00
11:11 PM,51.8,51.8,100,30.51,-9999.0,Calm,Calm,-,N/A,,Unknown,0,2013-09-03 13:11:00
11:30 PM,50.0,50.0,100,30.51,4.3,Calm,Calm,-,N/A,,Unknown,0,2013-09-03 13:30:00
11:32 PM,50.0,50.0,100,30.51,3.7,Calm,Calm,-,N/A,,Unknown,0,2013-09-03 13:32:00